Location: Banff
(51.1667°N, 115.5667°W)
Time: 19:58:52
(UTC+00:00)

Vanguard 1 Rocket - Pass Details

Date: 28 November 2020
Orbit: 655 x 4221 km, 34.3° (Epoch: 17 January)

Event Time Altitude Azimuth Distance (km) Brightness Sun altitude
Exits shadow 08:56:21 32° 132° (SE) 4,963 10.9 -55.8°
Drops below altitude 10° 09:06:58 10° 98° (E) 5,699 11.6 -54.8°
Sets 09:11:01 0° 91° (E) 6,281 12.0 -54.4°
